Dewpoint
55 55 54 54 52 51 50 50 49 47 47 47 47 49 50 50 50 50 50 50 51 52 52 53 52 52 54 52 51 53 50 50 51 50 50 50 50 50
56 55 54 54 54 53 51 51 50 51 49 48 47 48 47 49 49 50 49 50 51 52 52 52 51 51 52 53 52 52 51 51 51 50 48 49 50 50
55 55 54 55 54 54 54 53 51 49 49 49 48 47 48 47 47 48 48 48 49 50 52 52 52 51 51 52 52 52 51 51 51 51 50 47 49 50
55 55 55 54 54 54 53 53 53 51 50 49 48 46 46 46 47 46 47 47 46 46 47 49 49 49 49 51 52 52 52 51 52 51 51 49 47 50
56 55 55 54 53 53 53 53 53 53 51 51 51 47 46 46 46 47 46 46 47 46 47 48 48 48 47 48 50 51 51 52 51 51 51 50 49 49
56 56 55 55 54 53 53 53 53 52 51 50 50 48 45 45 46 45 45 46 46 47 48 48 48 49 49 48 47 48 50 51 51 51 51 50 49 48
56 56 55 55 55 54 54 54 53 52 52 51 49 47 45 44 45 45 45 45 46 47 46 46 47 47 48 49 49 48 47 49 50 50 51 50 50 48
54 55 55 54 54 54 54 54 54 53 52 51 50 48 48 46 46 47 46 45 44 45 45 44 45 45 46 47 48 48 48 47 48 49 50 50 50 50
53 53 54 55 54 55 54 53 53 53 53 53 51 50 49 49 48 46 46 45 45 44 44 43 43 43 44 45 47 47 48 48 48 48 49 50 50 51
54 54 53 53 53 53 53 53 52 53 52 53 53 52 51 51 48 47 46 46 45 44 44 45 42 42 42 43 45 46 47 47 48 48 48 48 49 49
53 53 53 52 52 52 53 52 52 52 52 53 53 53 52 50 49 49 47 46 45 44 44 43 41 41 40 40 40 41 45 47 47 48 48 48 49 49
51 51 52 52 52 52 52 51 50 51 51 50 50 51 51 51 49 50 46 45 42 42 41 44 40 40 40 36 36 38 40 46 47 48 49 49 48 48
50 50 51 51 51 51 51 52 51 51 50 50 50 49 49 49 48 47 46 45 42 43 41 43 39 38 38 37 35 36 39 41 44 45 47 48 48 47
49 49 50 51 50 50 50 50 51 50 49 49 48 47 47 47 46 46 45 44 43 44 43 41 39 39 38 37 37 36 37 38 41 42 43 45 45 46
49 48 48 48 48 48 48 49 49 49 48 47 46 46 45 46 44 42 41 40 39 40 42 40 40 38 39 40 37 36 36 36 37 37 38 39 40 41
47 48 48 47 47 48 48 48 48 49 48 47 46 46 41 42 42 39 39 38 40 37 36 39 39 39 39 38 37 36 35 35 34 35 34 34 35 36
43 46 47 47 46 46 47 47 47 47 47 47 45 42 41 41 40 38 39 38 40 38 36 34 36 36 36 37 36 35 34 34 33 33 32 33 33 33
42 42 44 45 45 45 45 45 45 46 46 44 43 42 41 40 39 38 38 39 40 37 35 33 34 35 35 35 36 34 34 33 33 33 33 33 32 32
41 41 43 44 44 45 45 44 43 44 45 43 42 42 41 39 39 38 38 38 37 36 35 34 35 36 35 33 32 35 33 32 32 31 31 31 30 30
41 41 41 43 43 44 44 43 43 43 42 42 41 41 39 39 37 37 37 38 37 34 33 33 35 36 36 33 30 31 33 31 30 30 29 30 30 32
35 36 37 39 41 43 43 43 43 42 42 41 41 40 39 38 38 37 37 37 36 35 33 33 35 35 32 31 28 27 30 31 31 29 28 26 26 27
32 33 34 35 36 38 40 41 41 41 40 39 40 39 38 38 38 36 36 35 35 35 34 33 33 32 31 31 28 26 26 28 30 31 28 25 23 23
27 29 31 33 34 35 36 37 37 38 38 38 38 38 37 36 37 36 36 35 34 32 32 30 31 31 29 28 27 25 23 22 22 23 24 26 24 24
Wind_Speed
17 15 14 14 14 13 10 9 12 7 8 6 7 7 10 12 16 14 15 17 18 17 15 14 11 7 6 10 9 10 10 8 6 4 4 3 2 3
13 14 15 10 13 12 12 11 10 12 11 5 9 8 4 7 11 15 15 17 18 17 17 17 15 12 11 8 12 12 15 13 11 8 7 6 4 3
14 15 16 14 13 12 12 10 14 11 12 8 7 3 6 9 6 9 11 12 13 15 17 17 17 16 15 15 12 15 18 16 14 11 9 8 8 5
18 13 16 13 15 14 12 15 14 13 13 18 8 8 10 6 6 7 9 10 12 14 15 15 15 16 16 17 16 13 16 18 16 14 11 10 9 9
14 17 15 15 16 13 14 15 16 14 15 15 15 8 9 5 7 5 6 8 10 12 12 13 15 16 17 17 19 18 16 17 18 17 16 13 11 10
14 16 16 16 17 16 15 16 14 14 13 15 14 13 10 6 4 9 12 7 10 7 12 14 13 16 17 17 18 19 19 18 18 19 18 16 14 13
14 15 16 16 19 17 14 15 15 15 14 15 15 11 11 9 12 8 14 7 9 10 8 11 12 13 13 16 16 20 20 19 18 18 19 19 17 15
16 15 15 20 21 22 22 20 17 17 16 15 16 15 20 17 11 14 11 8 10 6 9 10 9 14 13 13 15 17 19 19 19 20 19 18 18 18
15 14 14 13 18 16 20 25 25 25 26 21 19 18 17 17 13 14 14 11 11 6 7 7 5 9 8 11 14 16 17 18 18 19 19 19 21 22
14 16 16 15 16 17 16 17 17 17 19 20 16 16 18 13 18 13 13 7 3 4 7 7 5 5 1 1 2 8 12 15 15 15 15 17 18 19
15 16 16 17 19 21 17 16 15 15 14 18 21 18 19 18 16 13 12 12 9 10 12 4 4 4 1 1 2 3 3 9 11 11 11 11 12 13
17 17 21 20 18 20 18 17 17 18 14 13 13 15 16 17 24 19 15 14 6 5 9 13 6 5 2 1 2 3 1 2 2 6 6 9 10 7
15 14 15 21 22 20 22 17 18 13 16 14 13 12 13 14 15 14 16 16 13 10 7 10 7 6 2 3 1 4 3 1 3 4 5 4 5 6
17 14 13 17 22 24 22 21 20 16 12 13 13 14 15 15 14 15 13 9 5 9 16 12 7 10 8 5 4 3 3 4 3 3 5 8 9 7
16 17 17 20 19 17 21 23 23 15 14 15 15 16 16 13 10 8 7 9 6 4 9 8 9 11 9 7 7 6 6 2 4 7 7 8 6 5
17 17 17 18 17 17 14 17 16 15 18 17 15 12 9 11 14 12 11 14 8 6 3 3 7 10 9 5 7 11 5 6 6 8 9 10 11 10
12 10 13 14 14 15 14 14 14 15 17 16 17 17 16 16 15 13 11 13 9 12 10 5 9 13 11 9 7 9 11 8 9 11 10 13 9 8
7 11 14 13 16 16 16 16 15 17 18 17 17 17 19 19 18 14 10 15 16 15 13 10 15 11 6 10 7 16 8 9 6 8 8 10 8 5
12 12 14 15 15 15 16 17 18 19 15 17 18 20 18 17 19 18 16 15 13 14 12 16 17 14 13 8 2 6 12 8 9 9 7 5 5 4
11 12 13 14 15 17 17 17 17 15 19 19 18 19 19 19 18 19 19 18 16 11 13 14 15 16 18 17 9 3 6 14 10 9 7 5 6 9
13 11 8 12 14 14 15 16 17 19 20 20 20 20 20 20 19 19 19 20 18 15 19 20 15 11 17 14 11 7 5 8 6 9 8 9 7 5
12 12 11 10 13 14 14 14 16 17 18 19 20 21 20 21 21 21 21 22 21 19 14 15 18 16 9 6 15 14 12 7 8 10 7 7 6 9
14 12 12 12 11 10 13 15 17 17 18 19 20 21 21 22 20 20 20 20 19 20 22 20 15 9 8 13 18 15 13 13 9 13 11 14 13 10
Wind_Direction
205 199 205 212 207 205 191 197 224 244 261 252 242 238 231 226 229 224 228 233 231 230 226 236 248 251 267 223 214 208 188 210 212 221 240 256 318 335
206 201 214 207 207 204 204 210 217 240 254 231 247 244 234 228 231 224 230 232 232 230 230 230 241 243 245 247 223 211 224 207 211 221 236 238 246 282
204 202 214 204 199 200 205 215 230 221 243 263 241 261 238 239 235 233 231 232 235 235 236 235 238 241 236 234 235 230 220 215 213 216 226 236 236 235
208 197 214 203 211 197 204 222 227 223 222 252 248 241 238 240 235 231 229 227 232 236 237 240 241 243 242 238 238 236 221 223 221 218 222 230 232 230
200 207 213 204 215 208 211 220 222 220 219 232 248 229 239 214 232 239 231 227 230 234 236 239 241 242 242 240 237 236 232 228 228 226 225 227 230 234
205 207 213 207 216 215 214 220 220 218 216 224 240 240 230 222 208 236 245 230 239 232 237 238 235 238 240 241 238 236 237 236 233 232 229 228 230 234
208 208 215 213 215 214 207 216 213 218 219 222 229 222 222 211 219 213 230 221 233 223 241 242 239 241 239 241 240 238 235 232 234 234 231 229 228 230
220 218 215 219 221 222 220 223 215 220 221 220 229 226 232 225 217 216 210 214 248 198 213 249 214 242 240 234 236 232 235 231 229 233 232 229 225 227
219 217 221 217 220 227 235 239 239 234 238 240 227 217 228 221 214 208 206 204 215 181 178 245 205 242 243 246 239 238 237 234 229 230 229 229 228 227
222 221 222 223 216 221 231 240 234 236 241 241 231 219 218 221 204 212 200 176 128 187 195 233 189 227 191 257 262 242 240 236 231 227 232 234 232 230
235 228 223 225 224 223 222 235 242 236 233 240 232 229 218 196 181 160 186 176 210 215 198 194 220 213 151 216 338 3 284 230 225 225 216 229 237 233
230 235 231 228 228 224 223 228 235 235 232 228 232 230 221 209 187 192 179 197 181 208 208 189 180 176 203 10 355 1 6 83 190 207 197 204 207 202
221 220 223 225 229 228 225 225 228 227 221 222 216 213 214 203 197 204 191 195 195 219 180 172 172 168 131 139 95 31 39 92 111 89 115 158 180 173
227 232 231 226 232 231 231 231 230 215 205 214 215 215 213 211 208 203 202 195 204 210 171 175 174 170 162 160 179 166 79 64 116 123 117 100 87 109
234 232 227 227 231 242 241 235 229 221 209 210 220 219 212 208 175 150 132 126 101 88 160 179 175 164 171 178 173 172 150 110 100 114 84 79 74 67
247 246 239 233 221 220 227 237 230 215 208 211 218 211 169 174 187 163 171 165 164 154 70 131 166 160 166 170 156 162 155 153 115 105 101 84 78 72
313 280 249 229 225 220 222 224 217 212 209 207 203 202 197 190 193 178 172 174 181 178 169 102 98 97 82 138 134 141 144 128 133 141 122 103 81 88
287 272 251 225 220 219 218 224 213 211 210 201 202 197 195 193 193 186 179 188 191 182 173 156 140 118 98 58 72 142 140 143 140 140 139 127 121 88
247 244 247 237 229 222 221 216 219 215 209 203 202 200 195 190 187 192 194 189 189 181 176 165 171 160 160 162 108 51 146 149 132 111 105 107 131 114
264 248 246 245 235 227 223 220 223 214 205 204 202 199 193 189 188 196 196 197 190 172 173 176 184 184 179 172 147 97 114 141 140 135 126 105 95 110
287 284 286 285 268 244 232 227 221 215 211 205 203 197 196 190 196 195 194 190 179 179 182 185 186 135 115 104 111 122 94 117 130 145 145 131 132 152
309 302 292 275 271 267 259 241 228 219 215 212 210 199 194 194 196 190 186 182 185 179 171 143 138 140 132 140 146 141 138 112 90 103 103 129 161 180
311 308 299 281 268 271 264 252 239 231 220 214 210 204 191 192 189 183 178 175 163 153 147 142 146 121 125 140 141 145 143 138 130 117 76 86 86 89